Location: Erlenbrunn
(49.1717°N, 7.6142°E)
Time: 09:52:48
(UTC+00:00)

SL-16 R/B - Pass Details

Date: 25 November 2020
Orbit: 841 x 849 km, 71.0° (Epoch: 26 January)

Event Time Altitude Azimuth Distance (km) Brightness Sun altitude
Rises 18:15:25 0° 214° (SW) 3,386 5.9 -25.2°
Reaches altitude 10° 18:17:52 10° 217° (SW) 2,455 5.1 -25.6°
Maximum altitude 18:23:29 70° 301° (WNW) 896 2.4 -26.5°
Enters shadow 18:25:15 44° 10° (N) 1,150 2.7 -26.8°
